603  
ASUS45 KBOU 231510  
RWRCO  
 
WEATHER ROUNDUP FOR COLORADO  
NATIONAL WEATHER SERVICE DENVER/BOULDER CO  
900 AM MDT SAT OCT 23 2021  
 
NOTE: "FAIR" INDICATES FEW OR NO CLOUDS BELOW 12000 FEET WITH NO  
SIGNIFICANT WEATHER AND/OR S TO VISIBILITY
.  
 
COZ001>005-013-030-031-231600-   
..NORTHWEST COLORADO
 
 
 
CITY SKY/WX TMP DP RH WIND PRES REMARKS
 
CRAIG PTSUNNY 37 29 72 CALM 29.88R  
HAYDEN FAIR 40 26 57 CALM 29.90R  
MEEKER FAIR 36 29 75 CALM 29.88S  
RANGELY FAIR 34 34 100 CALM 29.87R  
RABBIT EARS PA FAIR 36 23 60 W8 30.04R  
STEAMBOAT SPGS FAIR 32 27 81 CALM 29.89S  
WALDEN FAIR 36 23 60 SE7 29.93F  

 
 
COZ006>008-011-231600-   
..WEST CENTRAL VALLEYS
 
 
 
CITY SKY/WX TMP DP RH WIND PRES REMARKS
 
GRAND JUNCTION FAIR 49 30 48 CALM 29.86R  
MONTROSE FAIR 45 26 47 S5 29.93R  
EAGLE FAIR 31 19 61 CALM 29.97S  
RIFLE FAIR 36 29 75 CALM 29.90R  
DELTA FAIR 46 25 44 CALM 29.93R  
NUCLA NOT AVBL  

 
 
COZ017>023-064>068-231600-   
..SOUTHWEST COLORADO
 
 
 
CITY SKY/WX TMP DP RH WIND PRES REMARKS
 
DURANGO FAIR 42 22 44 E5 30.03R  
CORTEZ FAIR 37 28 70 CALM 29.98R  
PAGOSA SPRINGS FAIR 41 21 44 CALM 30.07R  
TELLURIDE FAIR 48 21 34 N3 30.06R  
WOLF CREEK PAS FAIR 30 14 51 SW22G33 30.19S WCI 17  

 
 
COZ009-010-012-014-032>034-037-058>063-231600-   
..CENTRAL COLORADO
 
 
 
CITY SKY/WX TMP DP RH WIND PRES REMARKS
 
ASPEN FAIR 41 23 48 S3 29.94F  
BUENA VISTA FAIR 40 13 33 N3 29.99F  
COPPER MTN FAIR 37 18 44 SE5 30.12F  
BERTHOUD PASS FAIR 28 12 50 W14G21 30.13R WCI 17  
DAKOTA HILL FAIR 34 12 40 SW3 30.07R  
COTTONWOOD PAS FAIR 45 18 33 SE5 30.04F  
GUNNISON FAIR 24 14 65 CALM 30.05F  
GRANBY FAIR 29 19 68 CALM 29.99F  
KREMMLING FAIR 30 21 69 CALM 29.97S  
LEADVILLE FAIR 34 15 46 SW3 30.03S  
MONARCH PASS FAIR 32 18 55 SW32 30.22R WCI 17  
SALIDA FAIR 44 12 27 N5 30.05S  
SUNLIGHT FAIR 34 21 60 SW18G28 30.08R WCI 23  
WILKERSON PASS FAIR 34 12 40 S7 30.12S WCI 28  

 
 
COZ069>075-231600-   
..SAN LUIS VALLEY/SANGRE DE CRISTO MOUNTAINS
 
 
 
CITY SKY/WX TMP DP RH WIND PRES REMARKS
 
ALAMOSA NOT AVBL  
DEL NORTE FAIR 37 19 47 W10 30.03F  
LA VETA PASS FAIR 37 18 44 W12G22 30.07R  
SAGUACHE FAIR 37 14 38 W10 30.04S  

 
 
COZ035-036-038>040-231600-   
..NORTHERN COLORADO FRONT RANGE
 
 
 
CITY SKY/WX TMP DP RH WIND PRES REMARKS
 
DENVER INTL AP PTSUNNY 50 16 25 S3 29.84R  
AURORA PTSUNNY 51 13 21 S10 29.85R  
WATKINS NOT AVBL  
ERIE FAIR 45 24 44 CALM 29.82S  
BOULDER FAIR 52 23 32 E7 29.82R  
CENTENNIAL PTSUNNY 45 17 32 CALM 29.86R  
BROOMFIELD NOT AVBL  
FORT COLLINS FAIR 45 29 53 CALM 29.82S  
LONGMONT FAIR 46 29 51 CALM 29.84S  

 
 
COZ041-046-047-076>085-087-088-231600-   
..PIKES PEAK/PALMER DIVIDE AND SOUTHERN FOOTHILLS
 
 
 
CITY SKY/WX TMP DP RH WIND PRES REMARKS
 
COLO. SPRINGS PTSUNNY 53 12 19 N3 29.88S  
A. F. ACADEMY FAIR 54 11 18 CALM 29.87R  
SCHRIEVER AFB NOT AVBL  
CHEYENNE MTN N/A 60 12 15 S9 29.89R  
ELLICOTT PTSUNNY 60 9 13 NW5 29.89R  
FALCON FAIR 56 15 20 NW17 29.91R  
FORT CARSON PTSUNNY 59 11 15 W16 29.84S  
LIMON FAIR 57 16 20 NW9 29.83S  
MONUMENT HILL FAIR 52 14 22 SW13G18 29.93R  
CANON CITY FAIR 52 18 25 W14 29.85S  
WALSENBURG NOT AVBL  
TRINIDAD FAIR 57 21 24 CALM 29.88R  

 
 
COZ042>045-048>051-090-091-231600-   
..NORTHEAST COLORADO
 
 
 
CITY SKY/WX TMP DP RH WIND PRES REMARKS
 
GREELEY FAIR 40 27 59 CALM 29.83S  
AKRON FAIR 44 21 40 W6 29.81S  
BURLINGTON FAIR 51 39 63 N5 29.81R  
WRAY FOG 37 37 100 NE10 29.83S VSB 1/4  
YUMA FAIR 41 32 70 E5 29.81S  
STERLING FOG 34 34 100 CALM 29.81S VSB<1/4  
HOLYOKE FOG 41 37 87 SE5 29.84R VSB 1/4  
FORT MORGAN FAIR 40 22 48 W6 29.83R  

 
 
COZ086-089-092>099-231600-   
..SOUTHEAST COLORADO
 
 
 
CITY SKY/WX TMP DP RH WIND PRES REMARKS
 
PUEBLO FAIR 54 20 26 W7 29.82S  
LA JUNTA FAIR 50 24 36 SW6 29.82S  
LAMAR FAIR 49 24 37 W12 29.79S  
SPRINGFIELD N/A 68 17 14 W8 29.81S  

 
 
 
CLICK HERE TO GO TO PREVIOUS BULLETINS.

The Nexlab CO Page Main Text Page